Weather History for Longview, TX

Change the Weather History Date:

Thursday, October 31, 2013

  Actual Average Record
Temperature  
Mean Temperature 66 °F 62 °F  
Max Temperature 79 °F 73 °F 93 °F (1944)
Min Temperature 53 °F 50 °F 25 °F (1993)
Degree Days  
Heating Degree Days 0 5  
Month to date heating degree days 49 83  
Since 1 July heating degree days 49 89  
Cooling Degree Days 1 2  
Month to date cooling degree days 132 116  
Year to date cooling degree days 2712 2395  
Growing Degree Days 17 (Base 50)    
Moisture  
Dew Point 58 °F    
Average Humidity 58    
Maximum Humidity 90    
Minimum Humidity 25    
Precipitation  
Precipitation 0.15 in 0.12 in 2.27 in (1941)
Month to date precipitation 2.66 4.58  
Year to date precipitation 29.53 38.57  
Snow  
Snow 0.00 in - - ()
Month to date snowfall 0.0  
Since 1 July snowfall 0.0  
Since 1 September snowfall 0.0  
Snow Depth 0.00 in    
Sea Level Pressure  
Sea Level Pressure 29.77 in    
Wind  
Wind Speed 8 mph (WSW)    
Max Wind Speed 22 mph    
Max Gust Speed 31 mph    
Visibility 10 miles    
Events Rain , Thunderstorm    
T = Trace of Precipitation, MM = Missing Value Source: NWS Daily Summary

Daily Weather History Graph

Daily Weather History Graph

Search for Another Location

Airport:

Trip Planner

Search our weather history database for the weather conditions in past years. The results will help you decide how hot, cold, wet, or windy it might be!

Date:

Astronomy

Oct. 31, 2013 Rise Set
Actual Time 7:35 AM CDT 6:29 PM CDT
Civil Twilight 7:10 AM CDT 6:54 PM CDT
Nautical Twilight 6:41 AM CDT 7:23 PM CDT
Astronomical Twilight 6:12 AM CDT 7:52 PM CDT
Moon 4:35 AM CDT (10/31) 4:39 PM CDT (10/31)
Length of Visible Light 11h 44m
Length of Day
10h 53m
Waning Crescent, 10% of the Moon is Illuminated
Oct 31
Waning Crescent
Nov 3
New
Nov 9
First Quarter
Nov 17
Full
Nov 25
Last Quarter

Hourly Weather History & Observations

Time (CDT) Temp. Dew Point Humidity Pressure Visibility Wind Dir Wind Speed Gust Speed Precip Events Conditions
12:12 AM - - N/A% 29.83 in - North - - N/A Thunderstorm Unknown
12:33 AM - - N/A% 29.83 in - North - - N/A Thunderstorm Unknown
12:53 AM - - N/A% 29.83 in - North - - N/A Thunderstorm Unknown
1:10 AM - - N/A% 29.83 in - North - - N/A Thunderstorm Thunderstorm
1:27 AM - - N/A% 29.79 in - North - - N/A   Unknown
1:39 AM - - N/A% 29.78 in - North - - N/A Thunderstorm Thunderstorm
1:53 AM - - N/A% 29.79 in - North - - N/A Thunderstorm Unknown
2:53 AM - - N/A% 29.78 in - North - - N/A Thunderstorm Thunderstorm
3:19 AM - - N/A% 29.77 in - North - - N/A   Unknown
3:53 AM - - N/A% 29.75 in - North - - N/A   Unknown
4:53 AM 68.0 °F 66.9 °F 96% 29.75 in 8.0 mi West 4.6 mph - N/A Rain Light Rain
5:53 AM 68.0 °F 66.9 °F 96% 29.70 in 10.0 mi South 4.6 mph - 0.08 in   Overcast
6:53 AM 69.1 °F 66.0 °F 90% 29.69 in 8.0 mi South 10.4 mph - 0.05 in Rain Light Rain
7:53 AM 68.0 °F 66.0 °F 93% 29.68 in 10.0 mi WNW 6.9 mph - 0.01 in Rain Light Rain
8:53 AM 69.1 °F 66.9 °F 93% 29.72 in 10.0 mi SW 6.9 mph - 0.00 in   Mostly Cloudy
9:45 AM 69.8 °F 66.2 °F 88% 29.75 in 10.0 mi SW 9.2 mph - 0.01 in Rain Light Rain
9:53 AM 70.0 °F 66.9 °F 90% 29.75 in 10.0 mi SW 12.7 mph 17.3 mph 0.01 in   Mostly Cloudy
10:53 AM 72.0 °F 68.0 °F 87% 29.74 in 10.0 mi WSW 9.2 mph - 0.00 in   Mostly Cloudy
11:20 AM 73.4 °F 68.0 °F 83% 29.75 in 10.0 mi WSW 6.9 mph - N/A   Overcast
11:53 AM 73.0 °F 68.0 °F 84% 29.76 in 10.0 mi SW 12.7 mph - N/A   Mostly Cloudy
12:09 PM 73.4 °F 68.0 °F 83% 29.76 in 10.0 mi WSW 11.5 mph - N/A   Partly Cloudy
12:53 PM 75.0 °F 66.0 °F 73% 29.73 in 10.0 mi SW 8.1 mph - N/A   Partly Cloudy
1:53 PM 75.9 °F 66.0 °F 71% 29.72 in 10.0 mi SW 9.2 mph - N/A   Clear
2:53 PM 79.0 °F 54.0 °F 42% 29.71 in 10.0 mi WSW 15.0 mph 20.7 mph N/A   Clear
3:53 PM 78.1 °F 39.9 °F 25% 29.72 in 10.0 mi West 16.1 mph 23.0 mph N/A   Clear
4:53 PM 75.0 °F 42.1 °F 31% 29.73 in 10.0 mi WNW 11.5 mph - N/A   Clear
5:53 PM 72.0 °F 42.1 °F 34% 29.75 in 10.0 mi West 11.5 mph - N/A   Clear
6:53 PM 66.9 °F 45.0 °F 45% 29.78 in 10.0 mi West 6.9 mph - N/A   Clear
7:53 PM 62.1 °F 46.9 °F 58% 29.82 in 10.0 mi WNW 5.8 mph - N/A   Clear
8:53 PM 60.1 °F 48.0 °F 64% 29.83 in 10.0 mi West 3.5 mph - N/A   Clear
9:53 PM 59.0 °F 48.9 °F 69% 29.85 in 10.0 mi West 5.8 mph - N/A   Clear
10:53 PM 55.9 °F 48.9 °F 77% 29.87 in 10.0 mi WNW 5.8 mph - N/A   Clear
11:53 PM 55.9 °F 48.0 °F 75% 29.88 in 10.0 mi NW 3.5 mph - N/A   Clear